Time,TemperatureF,DewpointF,PressureIn,WindDirection,WindDirectionDegrees,WindSpeedMPH,WindSpeedGustMPH,Humidity,HourlyPrecipIn,Conditions,Clouds,dailyrainin,SoftwareType,DateUTC
2013-02-16 00:03:00,36.1,19.2,30.43,North,355,0.0,0.0,50,0.00,,,0.00,meteohub,2013-02-16 06:03:00,
2013-02-16 00:08:00,36.0,20.1,30.43,North,355,0.0,0.0,52,0.00,,,0.00,meteohub,2013-02-16 06:08:00,
2013-02-16 00:13:00,36.0,20.5,30.43,North,355,0.0,0.0,53,0.00,,,0.00,meteohub,2013-02-16 06:13:00,
2013-02-16 00:18:00,35.6,20.7,30.43,North,355,0.0,0.0,54,0.00,,,0.00,meteohub,2013-02-16 06:18:00,
2013-02-16 00:23:00,35.4,20.5,30.43,North,355,0.0,0.0,54,0.00,,,0.00,meteohub,2013-02-16 06:23:00,
2013-02-16 00:28:00,35.2,20.7,30.43,North,355,0.0,0.0,55,0.00,,,0.00,meteohub,2013-02-16 06:28:00,
2013-02-16 00:33:00,35.1,20.5,30.43,North,355,0.0,0.0,55,0.00,,,0.00,meteohub,2013-02-16 06:33:00,
2013-02-16 00:38:00,34.9,20.3,30.43,North,355,0.0,0.0,55,0.00,,,0.00,meteohub,2013-02-16 06:38:00,
2013-02-16 00:43:00,34.5,20.5,30.43,North,355,0.0,0.0,56,0.00,,,0.00,meteohub,2013-02-16 06:43:00,
2013-02-16 00:48:00,34.5,20.5,30.43,North,355,0.0,0.0,56,0.00,,,0.00,meteohub,2013-02-16 06:48:00,
2013-02-16 00:53:00,34.3,20.3,30.43,North,355,0.0,0.0,56,0.00,,,0.00,meteohub,2013-02-16 06:53:00,
2013-02-16 00:58:00,34.5,20.5,30.42,North,355,0.0,0.0,56,0.00,,,0.00,meteohub,2013-02-16 06:58:00,
2013-02-16 01:03:00,34.5,20.5,30.42,North,355,0.0,0.0,56,0.00,,,0.00,meteohub,2013-02-16 07:03:00,
2013-02-16 01:08:00,34.5,20.8,30.42,North,355,0.0,0.0,57,0.00,,,0.00,meteohub,2013-02-16 07:08:00,
2013-02-16 01:13:00,34.3,21.9,30.42,North,355,0.0,0.0,60,0.00,,,0.00,meteohub,2013-02-16 07:13:00,
2013-02-16 01:18:00,34.0,22.6,30.43,North,355,0.0,0.0,63,0.00,,,0.00,meteohub,2013-02-16 07:18:00,
2013-02-16 01:23:00,33.6,22.8,30.43,North,355,0.0,0.0,64,0.00,,,0.00,meteohub,2013-02-16 07:23:00,
2013-02-16 01:28:00,33.3,20.8,30.43,North,355,0.0,0.0,60,0.00,,,0.00,meteohub,2013-02-16 07:28:00,
2013-02-16 01:33:00,33.1,20.3,30.44,North,355,0.0,0.0,59,0.00,,,0.00,meteohub,2013-02-16 07:33:00,
2013-02-16 01:38:00,32.7,19.6,30.44,North,355,0.0,0.0,58,0.00,,,0.00,meteohub,2013-02-16 07:38:00,
2013-02-16 01:43:00,32.5,19.4,30.44,North,355,0.0,0.0,58,0.00,,,0.00,meteohub,2013-02-16 07:43:00,
2013-02-16 01:48:00,32.2,19.0,30.44,North,355,0.0,0.0,58,0.00,,,0.00,meteohub,2013-02-16 07:48:00,
2013-02-16 01:53:00,31.8,18.7,30.44,North,350,0.0,0.0,58,0.00,,,0.00,meteohub,2013-02-16 07:53:00,
2013-02-16 01:58:00,31.8,18.7,30.44,North,350,0.0,0.0,58,0.00,,,0.00,meteohub,2013-02-16 07:58:00,
2013-02-16 02:03:00,31.6,18.5,30.44,NNW,339,0.0,0.0,58,0.00,,,0.00,meteohub,2013-02-16 08:03:00,
2013-02-16 02:08:00,31.6,18.5,30.44,NNW,339,0.0,0.0,58,0.00,,,0.00,meteohub,2013-02-16 08:08:00,
2013-02-16 02:13:00,31.6,19.0,30.44,NNW,339,0.0,0.0,59,0.00,,,0.00,meteohub,2013-02-16 08:13:00,
2013-02-16 02:18:00,31.6,18.5,30.43,NNW,339,0.0,0.0,58,0.00,,,0.00,meteohub,2013-02-16 08:18:00,
2013-02-16 02:23:00,31.5,18.3,30.44,NNW,339,0.0,0.0,58,0.00,,,0.00,meteohub,2013-02-16 08:23:00,
2013-02-16 02:28:00,31.5,18.9,30.44,NNW,339,0.0,0.0,59,0.00,,,0.00,meteohub,2013-02-16 08:28:00,
2013-02-16 02:33:00,31.5,19.2,30.44,NNW,339,0.0,0.0,60,0.00,,,0.00,meteohub,2013-02-16 08:33:00,
2013-02-16 02:38:00,31.3,18.1,30.44,NNW,339,0.0,0.0,58,0.00,,,0.00,meteohub,2013-02-16 08:38:00,
2013-02-16 02:43:00,30.9,19.0,30.44,NNW,339,0.0,0.0,61,0.00,,,0.00,meteohub,2013-02-16 08:43:00,
2013-02-16 02:48:00,30.9,18.7,30.44,NNW,339,0.0,0.0,60,0.00,,,0.00,meteohub,2013-02-16 08:48:00,
2013-02-16 02:53:00,30.6,18.3,30.45,NNW,339,0.0,0.0,60,0.00,,,0.00,meteohub,2013-02-16 08:53:00,
2013-02-16 02:58:00,30.4,18.1,30.44,NNW,339,0.0,0.0,60,0.00,,,0.00,meteohub,2013-02-16 08:58:00,
2013-02-16 03:03:00,30.4,18.5,30.44,NNW,339,0.0,0.0,61,0.00,,,0.00,meteohub,2013-02-16 09:03:00,
2013-02-16 03:08:00,30.4,18.5,30.44,NNW,339,0.0,0.0,61,0.00,,,0.00,meteohub,2013-02-16 09:08:00,
2013-02-16 03:13:00,30.2,18.3,30.45,NNW,339,0.0,0.0,61,0.00,,,0.00,meteohub,2013-02-16 09:13:00,
2013-02-16 03:18:00,30.4,18.9,30.45,NNW,339,0.0,0.0,62,0.00,,,0.00,meteohub,2013-02-16 09:18:00,
2013-02-16 03:23:00,30.4,18.9,30.44,NNW,339,0.0,0.0,62,0.00,,,0.00,meteohub,2013-02-16 09:23:00,
2013-02-16 03:28:00,30.4,19.2,30.45,NNW,339,0.0,0.0,63,0.00,,,0.00,meteohub,2013-02-16 09:28:00,
2013-02-16 03:33:00,30.2,19.9,30.44,NNW,339,0.0,0.0,65,0.00,,,0.00,meteohub,2013-02-16 09:33:00,
2013-02-16 03:39:00,30.2,19.9,30.45,NNW,339,0.0,0.0,65,0.00,,,0.00,meteohub,2013-02-16 09:39:00,
2013-02-16 03:44:00,30.0,19.4,30.44,NNW,339,0.0,0.0,64,0.00,,,0.00,meteohub,2013-02-16 09:44:00,
2013-02-16 03:49:00,30.0,19.8,30.45,NNW,339,0.0,0.0,65,0.00,,,0.00,meteohub,2013-02-16 09:49:00,
2013-02-16 03:54:00,30.0,19.8,30.45,NNW,339,0.0,0.0,65,0.00,,,0.00,meteohub,2013-02-16 09:54:00,
2013-02-16 03:59:00,29.8,19.2,30.44,NNW,339,0.0,0.0,64,0.00,,,0.00,meteohub,2013-02-16 09:59:00,
2013-02-16 04:04:00,29.7,19.0,30.44,NNW,339,0.0,0.0,64,0.00,,,0.00,meteohub,2013-02-16 10:04:00,
2013-02-16 04:09:00,29.7,19.8,30.44,NNW,339,0.0,0.0,66,0.00,,,0.00,meteohub,2013-02-16 10:09:00,
2013-02-16 04:14:00,29.7,19.8,30.44,NNW,339,0.0,0.0,66,0.00,,,0.00,meteohub,2013-02-16 10:14:00,
2013-02-16 04:19:00,29.8,19.6,30.44,NNW,339,0.0,0.0,65,0.00,,,0.00,meteohub,2013-02-16 10:19:00,
2013-02-16 04:24:00,29.8,19.6,30.44,NNW,339,0.0,0.0,65,0.00,,,0.00,meteohub,2013-02-16 10:24:00,
2013-02-16 04:29:00,29.8,19.6,30.44,NNW,339,0.0,0.0,65,0.00,,,0.00,meteohub,2013-02-16 10:29:00,
2013-02-16 04:34:00,29.8,19.6,30.45,NNW,339,0.0,0.0,65,0.00,,,0.00,meteohub,2013-02-16 10:34:00,
2013-02-16 04:39:00,29.8,19.6,30.45,NNW,339,0.0,0.0,65,0.00,,,0.00,meteohub,2013-02-16 10:39:00,
2013-02-16 04:44:00,29.8,19.6,30.44,NNW,339,0.0,0.0,65,0.00,,,0.00,meteohub,2013-02-16 10:44:00,
2013-02-16 04:49:00,29.8,19.9,30.45,NNW,339,0.0,0.0,66,0.00,,,0.00,meteohub,2013-02-16 10:49:00,
2013-02-16 04:54:00,30.0,20.1,30.44,NNW,339,0.0,0.0,66,0.00,,,0.00,meteohub,2013-02-16 10:54:00,
2013-02-16 04:59:00,29.8,20.3,30.45,NNW,339,0.0,0.0,67,0.00,,,0.00,meteohub,2013-02-16 10:59:00,
2013-02-16 05:04:00,29.7,20.5,30.45,NNW,339,0.0,0.0,68,0.00,,,0.00,meteohub,2013-02-16 11:04:00,
2013-02-16 05:09:00,29.3,20.7,30.44,NNW,339,0.0,0.0,70,0.00,,,0.00,meteohub,2013-02-16 11:09:00,
2013-02-16 05:14:00,28.9,20.5,30.44,NNW,339,0.0,0.0,70,0.00,,,0.00,meteohub,2013-02-16 11:14:00,
2013-02-16 05:19:00,28.8,20.5,30.44,NNW,339,0.0,0.0,71,0.00,,,0.00,meteohub,2013-02-16 11:19:00,
2013-02-16 05:24:00,28.6,20.7,30.44,NNW,339,0.0,0.0,72,0.00,,,0.00,meteohub,2013-02-16 11:24:00,
2013-02-16 05:29:00,28.2,20.1,30.44,NNW,339,0.0,0.0,71,0.00,,,0.00,meteohub,2013-02-16 11:29:00,
2013-02-16 05:34:00,28.2,19.8,30.45,NNW,339,0.0,0.0,70,0.00,,,0.00,meteohub,2013-02-16 11:34:00,
2013-02-16 05:39:00,28.4,19.6,30.44,NNW,339,0.0,0.0,69,0.00,,,0.00,meteohub,2013-02-16 11:39:00,
2013-02-16 05:44:00,28.4,19.2,30.45,NNW,339,0.0,0.0,68,0.00,,,0.00,meteohub,2013-02-16 11:44:00,
2013-02-16 05:49:00,28.6,19.0,30.45,NNW,339,0.0,0.0,67,0.00,,,0.00,meteohub,2013-02-16 11:49:00,
2013-02-16 05:54:00,28.6,19.0,30.45,NNW,339,0.0,0.0,67,0.00,,,0.00,meteohub,2013-02-16 11:54:00,
2013-02-16 05:59:00,28.8,18.9,30.45,NNW,339,0.0,0.0,66,0.00,,,0.00,meteohub,2013-02-16 11:59:00,
2013-02-16 06:04:00,28.8,19.2,30.45,NNW,339,0.0,0.0,67,0.00,,,0.00,meteohub,2013-02-16 12:04:00,
2013-02-16 06:09:00,28.8,19.6,30.45,NNW,339,0.0,0.0,68,0.00,,,0.00,meteohub,2013-02-16 12:09:00,
2013-02-16 06:14:00,28.8,19.9,30.45,NNW,339,0.0,0.0,69,0.00,,,0.00,meteohub,2013-02-16 12:14:00,
2013-02-16 06:19:00,28.8,19.6,30.45,NNW,339,0.0,0.0,68,0.00,,,0.00,meteohub,2013-02-16 12:19:00,
2013-02-16 06:24:00,28.8,19.6,30.45,NNW,339,0.0,0.0,68,0.00,,,0.00,meteohub,2013-02-16 12:24:00,
2013-02-16 06:29:00,28.8,19.6,30.45,NNW,339,0.0,0.0,68,0.00,,,0.00,meteohub,2013-02-16 12:29:00,
2013-02-16 06:34:00,28.6,19.4,30.46,NNW,339,0.0,0.0,68,0.00,,,0.00,meteohub,2013-02-16 12:34:00,
2013-02-16 06:39:00,28.6,19.4,30.45,NNW,339,0.0,0.0,68,0.00,,,0.00,meteohub,2013-02-16 12:39:00,
2013-02-16 06:44:00,28.6,19.4,30.45,NNW,339,0.0,0.0,68,0.00,,,0.00,meteohub,2013-02-16 12:44:00,
2013-02-16 06:49:00,28.6,19.8,30.45,NNW,339,0.0,0.0,69,0.00,,,0.00,meteohub,2013-02-16 12:49:00,
2013-02-16 06:54:00,28.2,19.8,30.45,NNW,339,0.0,0.0,70,0.00,,,0.00,meteohub,2013-02-16 12:54:00,
2013-02-16 06:59:00,28.0,19.9,30.45,NNW,339,0.0,0.0,71,0.00,,,0.00,meteohub,2013-02-16 12:59:00,
2013-02-16 07:04:00,27.7,19.8,30.45,NNW,338,0.0,0.0,72,0.00,,,0.00,meteohub,2013-02-16 13:04:00,
2013-02-16 07:09:00,27.3,19.6,30.45,NNW,338,0.0,0.0,72,0.00,,,0.00,meteohub,2013-02-16 13:09:00,
2013-02-16 07:15:00,27.1,19.9,30.45,NNW,338,0.0,0.0,74,0.00,,,0.00,meteohub,2013-02-16 13:15:00,
2013-02-16 07:20:00,27.1,19.9,30.46,NNW,338,0.0,0.0,74,0.00,,,0.00,meteohub,2013-02-16 13:20:00,
2013-02-16 07:25:00,27.0,19.4,30.46,NNW,338,0.0,0.0,73,0.00,,,0.00,meteohub,2013-02-16 13:25:00,
2013-02-16 07:30:00,27.0,19.4,30.46,NNW,338,0.0,0.0,73,0.00,,,0.00,meteohub,2013-02-16 13:30:00,
2013-02-16 07:35:00,27.0,19.4,30.46,NNW,338,0.0,0.0,73,0.00,,,0.00,meteohub,2013-02-16 13:35:00,
2013-02-16 07:40:00,27.0,19.4,30.47,NNW,338,0.0,0.0,73,0.00,,,0.00,meteohub,2013-02-16 13:40:00,
2013-02-16 07:45:00,27.1,19.9,30.47,NNW,338,0.0,0.0,74,0.00,,,0.00,meteohub,2013-02-16 13:45:00,
2013-02-16 07:50:00,27.3,19.6,30.47,NNW,338,0.0,0.0,72,0.00,,,0.00,meteohub,2013-02-16 13:50:00,
2013-02-16 07:55:00,27.7,19.8,30.48,NNW,338,0.0,0.0,72,0.00,,,0.00,meteohub,2013-02-16 13:55:00,
2013-02-16 08:00:00,28.0,19.9,30.48,NNW,338,0.0,0.0,71,0.00,,,0.00,meteohub,2013-02-16 14:00:00,
2013-02-16 08:05:00,28.4,19.9,30.48,NNW,338,0.0,0.0,70,0.00,,,0.00,meteohub,2013-02-16 14:05:00,
2013-02-16 08:10:00,28.9,20.5,30.48,NNW,338,0.0,0.0,70,0.00,,,0.00,meteohub,2013-02-16 14:10:00,
2013-02-16 08:15:00,29.5,20.7,30.48,NNW,338,0.0,0.0,69,0.00,,,0.00,meteohub,2013-02-16 14:15:00,
2013-02-16 08:20:00,30.0,20.5,30.48,NNW,338,0.0,0.0,67,0.00,,,0.00,meteohub,2013-02-16 14:20:00,
2013-02-16 08:25:00,30.6,20.8,30.49,NNW,338,0.0,0.0,67,0.00,,,0.00,meteohub,2013-02-16 14:25:00,
2013-02-16 08:30:00,30.9,20.8,30.49,NNW,338,0.0,0.0,66,0.00,,,0.00,meteohub,2013-02-16 14:30:00,
2013-02-16 08:35:00,31.6,21.2,30.49,NNW,338,0.0,0.0,65,0.00,,,0.00,meteohub,2013-02-16 14:35:00,
2013-02-16 08:40:00,32.4,21.6,30.49,NNW,338,0.0,0.0,64,0.00,,,0.00,meteohub,2013-02-16 14:40:00,
2013-02-16 08:45:00,32.7,21.6,30.49,NNW,338,0.0,0.0,63,0.00,,,0.00,meteohub,2013-02-16 14:45:00,
2013-02-16 08:50:00,33.1,22.3,30.49,NNW,334,0.0,0.0,64,0.00,,,0.00,meteohub,2013-02-16 14:50:00,
2013-02-16 08:55:00,33.4,22.6,30.49,NNW,334,0.0,0.0,64,0.00,,,0.00,meteohub,2013-02-16 14:55:00,
2013-02-16 09:00:00,34.2,22.8,30.49,NW,308,0.0,0.0,63,0.00,,,0.00,meteohub,2013-02-16 15:00:00,
2013-02-16 09:05:00,34.5,22.5,30.48,WNW,303,0.0,0.0,61,0.00,,,0.00,meteohub,2013-02-16 15:05:00,
2013-02-16 09:10:00,35.1,23.0,30.48,WNW,302,0.0,0.0,61,0.00,,,0.00,meteohub,2013-02-16 15:10:00,
2013-02-16 09:15:00,35.8,22.8,30.48,West,265,0.0,0.0,59,0.00,,,0.00,meteohub,2013-02-16 15:15:00,
2013-02-16 09:20:00,36.1,22.8,30.48,WSW,252,0.0,5.0,58,0.00,,,0.00,meteohub,2013-02-16 15:20:00,
2013-02-16 09:25:00,36.9,23.0,30.48,WSW,246,7.0,7.0,57,0.00,,,0.00,meteohub,2013-02-16 15:25:00,
2013-02-16 09:30:00,37.8,23.0,30.48,WSW,248,0.0,5.0,55,0.00,,,0.00,meteohub,2013-02-16 15:30:00,
2013-02-16 09:35:00,38.3,23.2,30.48,WSW,247,0.0,5.0,54,0.00,,,0.00,meteohub,2013-02-16 15:35:00,
2013-02-16 09:40:00,39.0,23.7,30.48,WSW,247,0.0,7.0,54,0.00,,,0.00,meteohub,2013-02-16 15:40:00,
2013-02-16 09:45:00,40.3,22.1,30.48,WNW,284,7.0,7.0,48,0.00,,,0.00,meteohub,2013-02-16 15:45:00,
2013-02-16 09:50:00,41.5,21.7,30.48,WSW,252,5.0,9.0,45,0.00,,,0.00,meteohub,2013-02-16 15:50:00,
2013-02-16 09:55:00,42.4,21.6,30.47,West,265,4.0,9.0,43,0.00,,,0.00,meteohub,2013-02-16 15:55:00,
2013-02-16 10:00:00,43.0,21.4,30.47,WSW,250,5.0,9.0,42,0.00,,,0.00,meteohub,2013-02-16 16:00:00,
2013-02-16 10:05:00,43.3,21.2,30.47,West,265,6.0,9.0,41,0.00,,,0.00,meteohub,2013-02-16 16:05:00,
2013-02-16 10:10:00,44.1,21.2,30.47,WSW,246,7.0,12.0,40,0.00,,,0.00,meteohub,2013-02-16 16:10:00,
2013-02-16 10:15:00,44.4,21.0,30.47,SW,227,3.0,12.0,39,0.00,,,0.00,meteohub,2013-02-16 16:15:00,
2013-02-16 10:20:00,45.0,20.8,30.47,WSW,254,12.0,12.0,38,0.00,,,0.00,meteohub,2013-02-16 16:20:00,
2013-02-16 10:25:00,45.1,21.0,30.46,WSW,254,4.0,11.0,38,0.00,,,0.00,meteohub,2013-02-16 16:25:00,
2013-02-16 10:30:00,45.3,21.2,30.47,SW,227,10.0,15.0,38,0.00,,,0.00,meteohub,2013-02-16 16:30:00,
2013-02-16 10:35:00,45.9,21.7,30.46,SW,225,6.0,13.0,38,0.00,,,0.00,meteohub,2013-02-16 16:35:00,
2013-02-16 10:40:00,46.4,21.6,30.46,WSW,250,11.0,13.0,37,0.00,,,0.00,meteohub,2013-02-16 16:40:00,
2013-02-16 10:46:00,46.6,21.7,30.46,SW,229,4.0,15.0,37,0.00,,,0.00,meteohub,2013-02-16 16:46:00,
2013-02-16 10:51:00,46.9,22.1,30.46,WSW,244,1.0,15.0,37,0.00,,,0.00,meteohub,2013-02-16 16:51:00,
2013-02-16 10:56:00,47.5,21.9,30.45,WSW,250,6.0,15.0,36,0.00,,,0.00,meteohub,2013-02-16 16:56:00,
2013-02-16 11:01:00,48.0,22.3,30.45,SW,234,4.0,15.0,36,0.00,,,0.00,meteohub,2013-02-16 17:01:00,
2013-02-16 11:06:00,48.4,22.6,30.45,WSW,241,10.0,15.0,36,0.00,,,0.00,meteohub,2013-02-16 17:06:00,
2013-02-16 11:11:00,48.6,22.1,30.45,WSW,239,5.0,12.0,35,0.00,,,0.00,meteohub,2013-02-16 17:11:00,
2013-02-16 11:16:00,49.1,22.6,30.45,WSW,242,2.0,14.0,35,0.00,,,0.00,meteohub,2013-02-16 17:16:00,
2013-02-16 11:21:00,49.5,23.5,30.45,WSW,247,0.0,14.0,36,0.00,,,0.00,meteohub,2013-02-16 17:21:00,
2013-02-16 11:26:00,49.5,23.5,30.44,SW,227,7.0,14.0,36,0.00,,,0.00,meteohub,2013-02-16 17:26:00,
2013-02-16 11:31:00,49.6,23.7,30.44,WSW,246,11.0,14.0,36,0.00,,,0.00,meteohub,2013-02-16 17:31:00,
2013-02-16 11:36:00,50.2,23.5,30.44,SW,217,9.0,15.0,35,0.00,,,0.00,meteohub,2013-02-16 17:36:00,
2013-02-16 11:41:00,50.4,23.7,30.44,SW,219,10.0,15.0,35,0.00,,,0.00,meteohub,2013-02-16 17:41:00,
2013-02-16 11:46:00,50.5,23.9,30.44,WSW,240,8.0,13.0,35,0.00,,,0.00,meteohub,2013-02-16 17:46:00,
2013-02-16 11:51:00,51.1,24.4,30.43,SW,236,0.0,13.0,35,0.00,,,0.00,meteohub,2013-02-16 17:51:00,
2013-02-16 11:56:00,51.4,24.6,30.43,SW,235,0.0,13.0,35,0.00,,,0.00,meteohub,2013-02-16 17:56:00,
2013-02-16 12:01:00,52.0,25.2,30.43,SW,229,0.0,13.0,35,0.00,,,0.00,meteohub,2013-02-16 18:01:00,
2013-02-16 12:06:00,52.5,25.7,30.42,West,267,11.0,13.0,35,0.00,,,0.00,meteohub,2013-02-16 18:06:00,
2013-02-16 12:11:00,53.1,25.3,30.43,SW,234,4.0,11.0,34,0.00,,,0.00,meteohub,2013-02-16 18:11:00,
2013-02-16 12:16:00,53.4,25.7,30.42,WSW,256,2.0,11.0,34,0.00,,,0.00,meteohub,2013-02-16 18:16:00,
2013-02-16 12:21:00,53.8,26.1,30.41,WSW,245,5.0,11.0,34,0.00,,,0.00,meteohub,2013-02-16 18:21:00,
2013-02-16 12:26:00,54.1,26.4,30.41,WSW,242,4.0,11.0,34,0.00,,,0.00,meteohub,2013-02-16 18:26:00,
2013-02-16 12:31:00,54.7,26.1,30.40,NNW,328,6.0,19.0,33,0.00,,,0.00,meteohub,2013-02-16 18:31:00,
2013-02-16 12:36:00,55.0,25.7,30.40,SW,230,5.0,19.0,32,0.00,,,0.00,meteohub,2013-02-16 18:36:00,
2013-02-16 12:41:00,55.2,26.6,30.39,West,273,0.0,13.0,33,0.00,,,0.00,meteohub,2013-02-16 18:41:00,
2013-02-16 12:46:00,55.8,25.5,30.39,West,263,0.0,13.0,31,0.00,,,0.00,meteohub,2013-02-16 18:46:00,
2013-02-16 12:51:00,56.5,26.2,30.38,West,275,4.0,11.0,31,0.00,,,0.00,meteohub,2013-02-16 18:51:00,
2013-02-16 12:56:00,56.7,25.5,30.37,WSW,252,0.0,13.0,30,0.00,,,0.00,meteohub,2013-02-16 18:56:00,
2013-02-16 13:01:00,56.5,25.3,30.37,WSW,258,0.0,13.0,30,0.00,,,0.00,meteohub,2013-02-16 19:01:00,
2013-02-16 13:06:00,56.8,25.7,30.36,WSW,240,0.0,13.0,30,0.00,,,0.00,meteohub,2013-02-16 19:06:00,
2013-02-16 13:11:00,57.2,26.1,30.36,SW,229,0.0,13.0,30,0.00,,,0.00,meteohub,2013-02-16 19:11:00,
2013-02-16 13:16:00,57.4,26.2,30.35,SW,227,5.0,9.0,30,0.00,,,0.00,meteohub,2013-02-16 19:16:00,
2013-02-16 13:21:00,57.6,25.5,30.35,SW,236,0.0,9.0,29,0.00,,,0.00,meteohub,2013-02-16 19:21:00,
2013-02-16 13:26:00,58.1,25.2,30.34,West,272,0.0,13.0,28,0.00,,,0.00,meteohub,2013-02-16 19:26:00,
2013-02-16 13:31:00,58.5,25.5,30.34,WSW,257,0.0,13.0,28,0.00,,,0.00,meteohub,2013-02-16 19:31:00,
2013-02-16 13:36:00,58.6,25.7,30.33,WNW,283,7.0,17.0,28,0.00,,,0.00,meteohub,2013-02-16 19:36:00,
2013-02-16 13:42:00,59.2,24.3,30.33,West,269,8.0,17.0,26,0.00,,,0.00,meteohub,2013-02-16 19:42:00,
2013-02-16 13:47:00,59.4,25.3,30.33,SW,234,10.0,17.0,27,0.00,,,0.00,meteohub,2013-02-16 19:47:00,
2013-02-16 13:52:00,59.4,24.4,30.32,WSW,244,5.0,17.0,26,0.00,,,0.00,meteohub,2013-02-16 19:52:00,
2013-02-16 13:57:00,59.4,25.3,30.31,WSW,250,6.0,17.0,27,0.00,,,0.00,meteohub,2013-02-16 19:57:00,
2013-02-16 14:02:00,59.5,24.6,30.32,West,268,8.0,17.0,26,0.00,,,0.00,meteohub,2013-02-16 20:02:00,
2013-02-16 14:07:00,59.5,24.6,30.31,WSW,240,13.0,17.0,26,0.00,,,0.00,meteohub,2013-02-16 20:07:00,
2013-02-16 14:12:00,59.7,24.8,30.30,WSW,254,13.0,17.0,26,0.00,,,0.00,meteohub,2013-02-16 20:12:00,
2013-02-16 14:17:00,60.1,25.2,30.30,SW,232,6.0,17.0,26,0.00,,,0.00,meteohub,2013-02-16 20:17:00,
2013-02-16 14:22:00,60.3,24.3,30.30,SW,231,0.0,17.0,25,0.00,,,0.00,meteohub,2013-02-16 20:22:00,
2013-02-16 14:27:00,60.4,25.3,30.29,SW,235,5.0,21.0,26,0.00,,,0.00,meteohub,2013-02-16 20:27:00,
2013-02-16 14:32:00,61.0,25.0,30.29,WSW,250,8.0,21.0,25,0.00,,,0.00,meteohub,2013-02-16 20:32:00,
2013-02-16 14:37:00,61.2,25.0,30.29,SW,227,6.0,17.0,25,0.00,,,0.00,meteohub,2013-02-16 20:37:00,
2013-02-16 14:42:00,61.3,25.2,30.28,WSW,240,4.0,17.0,25,0.00,,,0.00,meteohub,2013-02-16 20:42:00,
2013-02-16 14:47:00,61.7,24.6,30.28,WSW,250,2.0,17.0,24,0.00,,,0.00,meteohub,2013-02-16 20:47:00,
2013-02-16 14:52:00,61.5,24.4,30.28,SW,232,7.0,17.0,24,0.00,,,0.00,meteohub,2013-02-16 20:52:00,
2013-02-16 14:57:00,61.9,25.7,30.27,SW,216,6.0,19.0,25,0.00,,,0.00,meteohub,2013-02-16 20:57:00,
2013-02-16 15:02:00,61.9,24.6,30.27,SSW,213,7.0,19.0,24,0.00,,,0.00,meteohub,2013-02-16 21:02:00,
2013-02-16 15:07:00,62.1,24.8,30.27,WSW,248,11.0,19.0,24,0.00,,,0.00,meteohub,2013-02-16 21:07:00,
2013-02-16 15:12:00,62.2,25.0,30.26,SW,227,2.0,19.0,24,0.00,,,0.00,meteohub,2013-02-16 21:12:00,
2013-02-16 15:17:00,62.4,26.1,30.26,SW,226,3.0,17.0,25,0.00,,,0.00,meteohub,2013-02-16 21:17:00,
2013-02-16 15:22:00,62.8,26.4,30.26,SW,228,4.0,17.0,25,0.00,,,0.00,meteohub,2013-02-16 21:22:00,
2013-02-16 15:27:00,63.1,25.7,30.25,SW,233,4.0,17.0,24,0.00,,,0.00,meteohub,2013-02-16 21:27:00,
2013-02-16 15:32:00,63.1,24.8,30.25,SW,218,9.0,17.0,23,0.00,,,0.00,meteohub,2013-02-16 21:32:00,
2013-02-16 15:37:00,63.1,25.7,30.25,WSW,250,1.0,17.0,24,0.00,,,0.00,meteohub,2013-02-16 21:37:00,
2013-02-16 15:42:00,63.5,26.1,30.25,SW,226,4.0,17.0,24,0.00,,,0.00,meteohub,2013-02-16 21:42:00,
2013-02-16 15:47:00,63.7,25.2,30.24,SW,221,5.0,17.0,23,0.00,,,0.00,meteohub,2013-02-16 21:47:00,
2013-02-16 15:52:00,63.9,25.3,30.25,SW,233,0.0,17.0,23,0.00,,,0.00,meteohub,2013-02-16 21:52:00,
2013-02-16 15:57:00,64.0,25.5,30.24,SSW,198,3.0,12.0,23,0.00,,,0.00,meteohub,2013-02-16 21:57:00,
2013-02-16 16:02:00,64.0,24.4,30.23,SW,232,3.0,12.0,22,0.00,,,0.00,meteohub,2013-02-16 22:02:00,
2013-02-16 16:07:00,64.4,24.8,30.23,WSW,237,0.0,12.0,22,0.00,,,0.00,meteohub,2013-02-16 22:07:00,
2013-02-16 16:12:00,64.6,24.8,30.23,WSW,244,4.0,12.0,22,0.00,,,0.00,meteohub,2013-02-16 22:12:00,
2013-02-16 16:17:00,64.8,25.0,30.23,SW,225,0.0,13.0,22,0.00,,,0.00,meteohub,2013-02-16 22:17:00,
2013-02-16 16:22:00,65.1,25.3,30.22,SW,235,1.0,13.0,22,0.00,,,0.00,meteohub,2013-02-16 22:22:00,
2013-02-16 16:27:00,65.1,24.3,30.22,WSW,241,2.0,11.0,21,0.00,,,0.00,meteohub,2013-02-16 22:27:00,
2013-02-16 16:32:00,65.3,23.2,30.22,WSW,244,7.0,11.0,20,0.00,,,0.00,meteohub,2013-02-16 22:32:00,
2013-02-16 16:37:00,65.1,23.0,30.22,WSW,240,2.0,14.0,20,0.00,,,0.00,meteohub,2013-02-16 22:37:00,
2013-02-16 16:42:00,65.3,23.2,30.22,SW,234,5.0,14.0,20,0.00,,,0.00,meteohub,2013-02-16 22:42:00,
2013-02-16 16:47:00,65.1,23.0,30.22,SW,220,6.0,13.0,20,0.00,,,0.00,meteohub,2013-02-16 22:47:00,
2013-02-16 16:52:00,65.3,23.2,30.22,WSW,237,2.0,13.0,20,0.00,,,0.00,meteohub,2013-02-16 22:52:00,
2013-02-16 16:57:00,65.3,23.2,30.22,SW,234,0.0,16.0,20,0.00,,,0.00,meteohub,2013-02-16 22:57:00,
2013-02-16 17:02:00,65.5,23.4,30.21,SW,223,3.0,16.0,20,0.00,,,0.00,meteohub,2013-02-16 23:02:00,
2013-02-16 17:07:00,65.5,22.1,30.21,SSW,203,5.0,11.0,19,0.00,,,0.00,meteohub,2013-02-16 23:07:00,
2013-02-16 17:12:00,65.5,23.4,30.21,SW,229,10.0,11.0,20,0.00,,,0.00,meteohub,2013-02-16 23:12:00,
2013-02-16 17:17:00,65.5,22.1,30.20,SW,227,0.0,13.0,19,0.00,,,0.00,meteohub,2013-02-16 23:17:00,
2013-02-16 17:22:00,65.7,23.5,30.20,WSW,244,0.0,13.0,20,0.00,,,0.00,meteohub,2013-02-16 23:22:00,
2013-02-16 17:27:00,65.8,23.7,30.20,SW,230,0.0,16.0,20,0.00,,,0.00,meteohub,2013-02-16 23:27:00,
2013-02-16 17:32:00,66.0,22.6,30.20,SW,227,0.0,16.0,19,0.00,,,0.00,meteohub,2013-02-16 23:32:00,
2013-02-16 17:37:00,66.0,23.7,30.19,SW,221,0.0,5.0,20,0.00,,,0.00,meteohub,2013-02-16 23:37:00,
2013-02-16 17:43:00,65.8,23.7,30.19,WSW,238,5.0,5.0,20,0.00,,,0.00,meteohub,2013-02-16 23:43:00,
2013-02-16 17:48:00,65.7,22.3,30.19,SW,228,4.0,7.0,19,0.00,,,0.00,meteohub,2013-02-16 23:48:00,
2013-02-16 17:53:00,65.5,23.4,30.19,SW,219,0.0,7.0,20,0.00,,,0.00,meteohub,2013-02-16 23:53:00,
2013-02-16 17:58:00,65.3,24.4,30.19,SW,219,0.0,11.0,21,0.00,,,0.00,meteohub,2013-02-16 23:58:00,
2013-02-16 18:03:00,65.1,24.3,30.19,SW,215,0.0,11.0,21,0.00,,,0.00,meteohub,2013-02-17 00:03:00,
2013-02-16 18:08:00,64.8,23.9,30.19,SSW,205,0.0,2.0,21,0.00,,,0.00,meteohub,2013-02-17 00:08:00,
2013-02-16 18:13:00,64.6,24.8,30.19,SW,223,0.0,2.0,22,0.00,,,0.00,meteohub,2013-02-17 00:13:00,
2013-02-16 18:18:00,64.0,24.4,30.19,SW,223,0.0,4.0,22,0.00,,,0.00,meteohub,2013-02-17 00:18:00,
2013-02-16 18:23:00,63.5,25.0,30.18,SW,226,0.0,4.0,23,0.00,,,0.00,meteohub,2013-02-17 00:23:00,
2013-02-16 18:28:00,62.8,24.4,30.18,SW,216,0.0,0.0,23,0.00,,,0.00,meteohub,2013-02-17 00:28:00,
2013-02-16 18:33:00,62.1,23.9,30.18,SW,216,0.0,0.0,23,0.00,,,0.00,meteohub,2013-02-17 00:33:00,
2013-02-16 18:38:00,61.3,24.3,30.18,SW,216,0.0,0.0,24,0.00,,,0.00,meteohub,2013-02-17 00:38:00,
2013-02-16 18:43:00,60.6,23.5,30.18,SW,216,0.0,0.0,24,0.00,,,0.00,meteohub,2013-02-17 00:43:00,
2013-02-16 18:48:00,60.1,24.1,30.18,SW,216,0.0,0.0,25,0.00,,,0.00,meteohub,2013-02-17 00:48:00,
2013-02-16 18:53:00,59.4,23.5,30.18,SW,217,0.0,0.0,25,0.00,,,0.00,meteohub,2013-02-17 00:53:00,
2013-02-16 18:58:00,58.6,23.9,30.18,SW,216,0.0,0.0,26,0.00,,,0.00,meteohub,2013-02-17 00:58:00,
2013-02-16 19:03:00,58.3,23.5,30.18,SW,216,0.0,0.0,26,0.00,,,0.00,meteohub,2013-02-17 01:03:00,
2013-02-16 19:08:00,57.7,23.0,30.18,SW,214,0.0,0.0,26,0.00,,,0.00,meteohub,2013-02-17 01:08:00,
2013-02-16 19:13:00,57.4,23.7,30.19,SW,214,0.0,0.0,27,0.00,,,0.00,meteohub,2013-02-17 01:13:00,
2013-02-16 19:18:00,57.0,23.4,30.19,SW,214,0.0,0.0,27,0.00,,,0.00,meteohub,2013-02-17 01:18:00,
2013-02-16 19:23:00,56.7,23.9,30.19,SW,214,0.0,0.0,28,0.00,,,0.00,meteohub,2013-02-17 01:23:00,
2013-02-16 19:28:00,56.5,23.7,30.19,SW,214,0.0,1.0,28,0.00,,,0.00,meteohub,2013-02-17 01:28:00,
2013-02-16 19:33:00,56.1,23.4,30.19,SSW,202,0.0,1.0,28,0.00,,,0.00,meteohub,2013-02-17 01:33:00,
2013-02-16 19:38:00,55.9,24.1,30.18,SSW,193,0.0,1.0,29,0.00,,,0.00,meteohub,2013-02-17 01:38:00,
2013-02-16 19:43:00,55.6,23.9,30.19,SSW,193,0.0,1.0,29,0.00,,,0.00,meteohub,2013-02-17 01:43:00,
2013-02-16 19:48:00,55.2,24.3,30.19,SSW,193,0.0,0.0,30,0.00,,,0.00,meteohub,2013-02-17 01:48:00,
2013-02-16 19:53:00,55.0,24.1,30.19,SSW,192,0.0,0.0,30,0.00,,,0.00,meteohub,2013-02-17 01:53:00,
2013-02-16 19:58:00,54.9,24.1,30.18,SSE,164,0.0,0.0,30,0.00,,,0.00,meteohub,2013-02-17 01:58:00,
2013-02-16 20:03:00,54.7,24.6,30.19,SSE,163,0.0,0.0,31,0.00,,,0.00,meteohub,2013-02-17 02:03:00,
2013-02-16 20:08:00,54.7,24.6,30.19,SSE,163,0.0,4.0,31,0.00,,,0.00,meteohub,2013-02-17 02:08:00,
2013-02-16 20:13:00,54.7,24.6,30.19,SSE,167,0.0,4.0,31,0.00,,,0.00,meteohub,2013-02-17 02:13:00,
2013-02-16 20:18:00,54.9,24.8,30.19,SSE,165,0.0,4.0,31,0.00,,,0.00,meteohub,2013-02-17 02:18:00,
2013-02-16 20:23:00,54.7,24.6,30.19,SSW,207,0.0,4.0,31,0.00,,,0.00,meteohub,2013-02-17 02:23:00,
2013-02-16 20:28:00,54.5,24.4,30.19,SSW,208,0.0,4.0,31,0.00,,,0.00,meteohub,2013-02-17 02:28:00,
2013-02-16 20:33:00,54.1,24.1,30.19,SSW,193,0.0,4.0,31,0.00,,,0.00,meteohub,2013-02-17 02:33:00,
2013-02-16 20:38:00,54.0,24.8,30.18,SW,226,0.0,4.0,32,0.00,,,0.00,meteohub,2013-02-17 02:38:00,
2013-02-16 20:43:00,53.8,24.6,30.18,SSW,212,0.0,4.0,32,0.00,,,0.00,meteohub,2013-02-17 02:43:00,
2013-02-16 20:48:00,53.4,24.3,30.18,South,181,0.0,4.0,32,0.00,,,0.00,meteohub,2013-02-17 02:48:00,
2013-02-16 20:53:00,53.2,24.8,30.18,SSW,197,0.0,4.0,33,0.00,,,0.00,meteohub,2013-02-17 02:53:00,
2013-02-16 20:59:00,53.1,24.8,30.18,WSW,239,0.0,5.0,33,0.00,,,0.00,meteohub,2013-02-17 02:59:00,
2013-02-16 21:04:00,52.9,24.6,30.18,SW,215,0.0,5.0,33,0.00,,,0.00,meteohub,2013-02-17 03:04:00,
2013-02-16 21:09:00,52.7,24.4,30.18,SW,223,3.0,6.0,33,0.00,,,0.00,meteohub,2013-02-17 03:09:00,
2013-02-16 21:14:00,52.5,25.0,30.18,South,191,0.0,6.0,34,0.00,,,0.00,meteohub,2013-02-17 03:14:00,
2013-02-16 21:19:00,52.3,24.8,30.19,SW,222,0.0,10.0,34,0.00,,,0.00,meteohub,2013-02-17 03:19:00,
2013-02-16 21:24:00,52.0,24.4,30.19,SW,221,0.0,10.0,34,0.00,,,0.00,meteohub,2013-02-17 03:24:00,
2013-02-16 21:29:00,51.6,24.8,30.19,SSW,213,4.0,7.0,35,0.00,,,0.00,meteohub,2013-02-17 03:29:00,
2013-02-16 21:34:00,51.3,24.6,30.19,SW,225,0.0,7.0,35,0.00,,,0.00,meteohub,2013-02-17 03:34:00,
2013-02-16 21:39:00,50.7,24.8,30.19,SW,224,0.0,7.0,36,0.00,,,0.00,meteohub,2013-02-17 03:39:00,
2013-02-16 21:44:00,50.4,25.0,30.19,SW,220,0.0,7.0,37,0.00,,,0.00,meteohub,2013-02-17 03:44:00,
2013-02-16 21:49:00,49.8,24.6,30.19,SW,226,0.0,6.0,37,0.00,,,0.00,meteohub,2013-02-17 03:49:00,
2013-02-16 21:54:00,49.6,25.0,30.19,SW,216,0.0,6.0,38,0.00,,,0.00,meteohub,2013-02-17 03:54:00,
2013-02-16 21:59:00,49.5,25.0,30.19,SSW,213,2.0,5.0,38,0.00,,,0.00,meteohub,2013-02-17 03:59:00,
2013-02-16 22:04:00,49.5,25.0,30.19,SW,235,4.0,5.0,38,0.00,,,0.00,meteohub,2013-02-17 04:04:00,
2013-02-16 22:09:00,49.3,24.8,30.19,WSW,240,0.0,6.0,38,0.00,,,0.00,meteohub,2013-02-17 04:09:00,
2013-02-16 22:14:00,49.1,24.6,30.19,WSW,240,0.0,6.0,38,0.00,,,0.00,meteohub,2013-02-17 04:14:00,
2013-02-16 22:19:00,48.9,25.0,30.19,WSW,240,0.0,6.0,39,0.00,,,0.00,meteohub,2013-02-17 04:19:00,
2013-02-16 22:24:00,48.7,24.8,30.19,WSW,240,0.0,6.0,39,0.00,,,0.00,meteohub,2013-02-17 04:24:00,
2013-02-16 22:29:00,48.6,24.8,30.19,WSW,240,0.0,5.0,39,0.00,,,0.00,meteohub,2013-02-17 04:29:00,
2013-02-16 22:34:00,48.4,25.2,30.19,WSW,240,0.0,5.0,40,0.00,,,0.00,meteohub,2013-02-17 04:34:00,
2013-02-16 22:39:00,48.0,24.8,30.19,WSW,240,0.0,5.0,40,0.00,,,0.00,meteohub,2013-02-17 04:39:00,
2013-02-16 22:44:00,47.8,25.3,30.19,WSW,240,0.0,5.0,41,0.00,,,0.00,meteohub,2013-02-17 04:44:00,
2013-02-16 22:49:00,47.5,25.0,30.19,WSW,240,0.0,0.0,41,0.00,,,0.00,meteohub,2013-02-17 04:49:00,
2013-02-16 22:54:00,47.1,25.2,30.19,WSW,240,0.0,0.0,42,0.00,,,0.00,meteohub,2013-02-17 04:54:00,
2013-02-16 22:59:00,46.9,25.0,30.19,WSW,240,0.0,0.0,42,0.00,,,0.00,meteohub,2013-02-17 04:59:00,
2013-02-16 23:00:00,46.9,25.0,30.19,WSW,240,0.0,0.0,42,0.00,,,0.00,meteohub,2013-02-17 05:00:00,
2013-02-16 23:05:00,46.8,24.8,30.18,WSW,240,0.0,0.0,42,0.00,,,0.00,meteohub,2013-02-17 05:05:00,
2013-02-16 23:11:00,46.6,24.8,30.18,SW,235,3.0,0.0,42,0.00,,,0.00,meteohub,2013-02-17 05:11:00,
2013-02-16 23:16:00,46.4,25.2,30.18,SW,235,0.0,5.0,43,0.00,,,0.00,meteohub,2013-02-17 05:16:00,
2013-02-16 23:21:00,46.2,25.0,30.18,SW,235,0.0,5.0,43,0.00,,,0.00,meteohub,2013-02-17 05:21:00,
2013-02-16 23:26:00,46.0,24.8,30.18,SW,235,0.0,5.0,43,0.00,,,0.00,meteohub,2013-02-17 05:26:00,
2013-02-16 23:31:00,45.9,25.2,30.18,SW,235,0.0,5.0,44,0.00,,,0.00,meteohub,2013-02-17 05:31:00,
2013-02-16 23:36:00,45.7,25.0,30.18,SW,235,0.0,4.0,44,0.00,,,0.00,meteohub,2013-02-17 05:36:00,
2013-02-16 23:41:00,45.1,25.0,30.18,SW,235,0.0,4.0,45,0.00,,,0.00,meteohub,2013-02-17 05:41:00,
2013-02-16 23:46:00,44.8,24.8,30.18,SW,235,0.0,0.0,45,0.00,,,0.00,meteohub,2013-02-17 05:46:00,
2013-02-16 23:51:00,44.4,25.0,30.18,SW,235,0.0,0.0,46,0.00,,,0.00,meteohub,2013-02-17 05:51:00,
2013-02-16 23:56:00,44.1,24.6,30.17,SW,235,0.0,0.0,46,0.00,,,0.00,meteohub,2013-02-17 05:56:00,